Weather History for Millington, TN

Change the Weather History Date:

Friday, January 18, 2013

  Actual Average Record
Temperature  
Mean Temperature 40 °F -  
Max Temperature 53 °F 47 °F 62 °F (2015)
Min Temperature 26 °F 30 °F 37 °F (2015)
Degree Days  
Heating Degree Days 26    
Moisture  
Dew Point 27 °F    
Average Humidity 72    
Maximum Humidity 100    
Minimum Humidity 33    
Precipitation  
Precipitation 0.00 in - - ()
Sea Level Pressure  
Sea Level Pressure 30.48 in    
Wind  
Wind Speed 2 mph (SE)    
Max Wind Speed 6 mph    
Max Gust Speed -    
Visibility 10 miles    
Events      
Averages and records for this station are not official NWS values.
T = Trace of Precipitation, MM = Missing Value Source: NWS Daily Summary

Daily Weather History Graph

Daily Weather History Graph

Search for Another Location

Airport:

Trip Planner

Search our weather history database for the weather conditions in past years. The results will help you decide how hot, cold, wet, or windy it might be!

Date:

Astronomy

Jan. 18, 2013 Rise Set
Actual Time 7:06 AM CST 5:13 PM CST
Civil Twilight 6:39 AM CST 5:41 PM CST
Nautical Twilight 6:08 AM CST 6:12 PM CST
Astronomical Twilight 5:37 AM CST 6:42 PM CST
Moon 11:03 AM CST (1/18) No Moon Set
Length of Visible Light 11h 01m
Length of Day
10h 06m
Waxing Crescent, 47% of the Moon is Illuminated
Jan 18
Waxing Crescent
Jan 18
First Quarter
Jan 26
Full
Feb 3
Last Quarter
Feb 10
New

Hourly Weather History & Observations

Time (CST) Temp. Windchill Dew Point Humidity Pressure Visibility Wind Dir Wind Speed Gust Speed Precip Events Conditions
12:55 AM 30.2 °F 26.7 °F 26.6 °F 86% 30.49 in 10.0 mi North 3.5 mph - N/A   Clear
1:55 AM 30.2 °F - 26.6 °F 86% 30.52 in 10.0 mi Calm Calm - N/A   Clear
2:15 AM 28.4 °F - 24.8 °F 86% 30.53 in 10.0 mi Calm Calm - N/A   Clear
2:35 AM 28.4 °F - 26.6 °F 93% 30.53 in 10.0 mi Calm Calm - N/A   Clear
2:55 AM 28.4 °F - 26.6 °F 93% 30.53 in 10.0 mi Calm Calm - N/A   Clear
3:15 AM 28.4 °F - 26.6 °F 93% 30.52 in 10.0 mi Calm Calm - N/A   Clear
3:35 AM 28.4 °F - 26.6 °F 93% 30.52 in 10.0 mi Calm Calm - N/A   Clear
3:55 AM 28.4 °F - 26.6 °F 93% 30.53 in 10.0 mi Calm Calm - N/A   Clear
4:15 AM 26.6 °F - 24.8 °F 93% 30.53 in 10.0 mi Calm Calm - N/A   Clear
4:35 AM 28.4 °F - 26.6 °F 93% 30.53 in 10.0 mi Calm Calm - N/A   Clear
4:55 AM 28.4 °F - 26.6 °F 93% 30.52 in 10.0 mi Calm Calm - N/A   Clear
5:55 AM 26.6 °F - 26.6 °F 100% 30.53 in 10.0 mi Calm Calm - N/A   Clear
6:55 AM 26.6 °F - 24.8 °F 93% 30.55 in 8.0 mi Calm Calm - N/A   Clear
7:55 AM 26.6 °F - 24.8 °F 93% 30.56 in 10.0 mi Calm Calm - N/A   Clear
8:55 AM 35.6 °F - 30.2 °F 81% 30.57 in 10.0 mi Calm Calm - N/A   Clear
9:55 AM 37.4 °F 33.8 °F 28.4 °F 70% 30.58 in 10.0 mi ESE 4.6 mph - N/A   Clear
10:55 AM 41.0 °F 38.0 °F 30.2 °F 65% 30.56 in 10.0 mi SE 4.6 mph - N/A   Clear
11:55 AM 44.6 °F 43.1 °F 28.4 °F 53% 30.52 in 10.0 mi Variable 3.5 mph - N/A   Clear
12:55 PM 48.2 °F - 28.4 °F 46% 30.48 in 10.0 mi SSE 5.8 mph - N/A   Clear
1:55 PM 51.8 °F - 28.4 °F 41% 30.45 in 10.0 mi SSE 5.8 mph - N/A   Clear
2:55 PM 53.6 °F - 26.6 °F 35% 30.43 in 10.0 mi Variable 4.6 mph - N/A   Clear
3:55 PM 53.6 °F - 24.8 °F 33% 30.41 in 10.0 mi SSE 5.8 mph - N/A   Clear
4:55 PM 50.0 °F - 24.8 °F 37% 30.40 in 10.0 mi SSE 4.6 mph - N/A   Clear
5:55 PM 46.4 °F 44.3 °F 24.8 °F 43% 30.40 in 10.0 mi SE 4.6 mph - N/A   Clear
6:55 PM 39.2 °F 37.0 °F 26.6 °F 61% 30.39 in 10.0 mi SE 3.5 mph - N/A   Clear
7:55 PM 41.0 °F - 26.6 °F 57% 30.39 in 10.0 mi Calm Calm - N/A   Clear
8:55 PM 39.2 °F - 26.6 °F 61% 30.38 in 10.0 mi Calm Calm - N/A   Clear
9:55 PM 39.2 °F - 26.6 °F 61% 30.37 in 10.0 mi Calm Calm - N/A   Clear
10:55 PM 37.4 °F - 26.6 °F 65% 30.36 in 10.0 mi Calm Calm - N/A   Clear
11:55 PM 37.4 °F - 26.6 °F 65% 30.35 in 10.0 mi Calm Calm - N/A   Clear